STARLINK-6133, 57134

Orbit data source: Space-Track

STARLINK-6133, 57134 is a payload satellite owned by SpaceX/Seattle (US) in LEO that was launched on Fri, 23 Jun 2023 UTC via an FALCON 9 launch vehicle from the Air Force Eastern Test Range (AFETR). Payload-class satellites include a variety of spacecraft equipped with specific instruments for various scientific and technological missions. These include communications satellites like Starlink; space stations such as the ISS; scientific satellites like the Hubble; Earth observation satellites from companies like Planet Labs, Umbra, and HawkEye 360; GPS; miniature CubeSats for education and research; and military/defense satellites.

Loading next visibility...
Identifier
57134, 2023-090AK
Orbit
LEO
Country
Flag of USUS
Related business
Manufacturer
SpaceX/Seattle
Mission
Operational Commercial Communications
Bus & Motor
STARLINK, Unknown motor
Mass
305 kg wet, ~290 kg dry
Launch date (UTC)
2023-06-23 (3 years ago)
Launch vehicle
FALCON 9
Launch site
Air Force Eastern Test Range (AFETR)
Object type
Payload
Rocket body
Debris
Shape & HBR
Box + 1 Pan, 10.1 m
Radar Cross Section
11.087 m², Large (>1 m²)

Expand to show TLE details & history
Last TLE update: 3 days ago

TLE from 3 days ago
0 STARLINK-6133
1 57134U 23090AK  26170.99623055 -.00001120  00000-0 -31198-4 0  9991
2 57134  43.0029  45.2499 0001358 250.0216 110.0489 15.27564576166000
Epoch: 2026-06-19T23:54Z
TLE epoch observation values (Epoch: 2026-06-19T23:54:34.319Z)
Latitude
-0.00005°
Longitude
138.38965°
Altitude
483.191 km
Speed
7.625 km/s
True Right ascension
03h 00m 59s
True Declination
0° 00' 00"
Sunlit
Object was in daylight at epoch
Visualization orbit readout
Latitude
Unknown
Longitude
Unknown
Altitude
Unknown
Speed
Unknown
Apparent Right ascension
Unknown
Apparent Declination
Unknown
Sunlit
N/A
Visualization observer readout
Local Sidereal Time
00:50:20
Azimuth
Unknown
Elevation
Unknown
Doppler factor
Unknown
Orbital elements
Apogee altitude
485.972 km
Perigee altitude
484.108 km
Semi-major axis
6,863.177 km
Eccentricity
0.00014
Inclination
43.0029°
RAAN
45.2499°
Arg. of periapsis
250.0216°
True anomaly
110.06352°
Mean anomaly
110.0489°
Eccentric anomaly
110.05621°
Mean motion
3.81729 °/min
Orbital period
94.31 mins
BSTAR
-0.000031198
Loading maneuver chart data...
Computing Atmospheric mass density...
Loading historical data...
Loading historical data...
Loading historical data...
Loading historical data...
Loading historical data...
Loading historical data...
Loading historical data...

Documentation

Showing up to 5 results
|